This demonstration page uses our WeatherBlox Daily Observations layout. Learn more.

Left ArrowRight Arrow

34.16533, -84.80231

Hourly Observations for October 9, 2020

Temp ( °F °C ) Dew Point ( °F °C ) Humidity (%) Winds ( mph kmh ) Pressure ( in mb ) Visibility ( mi km ) Precip ( " mm )
12:53 am 00:53 Clear 65 18.3 62 16.7 90 90 Calm 30.06 1018 9 14 0.00 0.00
1:53 am 01:53 Clear 67 19.4 63 17.2 87 87 Calm 30.05 1018 10 16 0.00 0.00
2:53 am 02:53 Clear 65 18.3 62 16.7 90 90 Calm 30.08 1019 8 13 0.00 0.00
3:53 am 03:53 Clear 65 18.3 62 16.7 90 90 Calm 30.07 1018 7 11 0.00 0.00
4:53 am 04:53 Clear 66 18.9 63 17.2 90 90 E 3 6 30.06 1018 10 16 0.00 0.00
5:53 am 05:53 Clear 67 19.4 63 17.2 87 87 SE 3 6 30.07 1018 10 16 0.00 0.00
6:53 am 06:53 Clear 67 19.4 62 16.7 84 84 Calm 30.09 1019 10 16 0.00 0.00
7:53 am 07:53 Sunny 66 18.9 62 16.7 87 87 Calm 30.11 1020 10 16 0.00 0.00
8:53 am 08:53 Sunny 68 20 62 16.7 81 81 Calm 30.13 1020 10 16 0.00 0.00
9:53 am 09:53 Sunny 70 21.1 62 16.7 76 76 VRB 5 7 30.13 1020 10 16 0.00 0.00
10:53 am 10:53 Sunny 72 22.2 63 17.2 73 73 E 6 9 30.14 1021 10 16 0.00 0.00
11:53 am 11:53 Mostly Sunny 73 22.8 62 16.7 69 69 E 6 9 30.14 1021 10 16 0.00 0.00
12:53 pm 12:53 Sunny 73 22.8 62 16.7 69 69 E 6 9 30.14 1021 10 16 0.00 0.00
1:53 pm 13:53 Partly Cloudy 73 22.8 62 16.7 69 69 E 8 13 30.12 1020 10 16 0.00 0.00
2:53 pm 14:53 Mostly Cloudy 72 22.2 61 16.1 68 68 E 7 11 30.10 1019 10 16 0.00 0.00
3:53 pm 15:53 Mostly Cloudy with Light Rain 70 21.1 63 17.2 79 79 SE 5 7 30.08 1019 10 16 0.01 0.25
4:53 pm 16:53 Mostly Cloudy 70 21.1 62 16.7 76 76 ENE 5 7 30.08 1019 10 16 0.00 0.00
5:53 pm 17:53 Cloudy 68 20 62 16.7 81 81 ENE 3 6 30.09 1019 10 16 0.00 0.00
6:53 pm 18:53 Cloudy with Light Rain 66 18.9 63 17.2 90 90 N 3 6 30.11 1020 5 8 0.10 2.54
7:53 pm 19:53 Cloudy with Light Rain 66 18.9 63 17.2 90 90 Calm 30.12 1020 8 13 0.02 0.51
8:37 pm 20:37 Cloudy with Light Rain 66 18.9 63 17.2 90 90 SSE 6 9 30.15 1021 6 10 0.02 0.51
8:41 pm 20:41 Cloudy with Light Rain 66 18.9 63 17.2 90 90 SE 7 11 30.15 1021 6 10 0.03 0.76
8:45 pm 20:45 Cloudy with Rain 66 18.9 63 17.2 90 90 VRB 5 7 30.14 1020 4 6 0.04 1.02
8:53 pm 20:53 Cloudy with Rain 66 18.9 63 17.2 90 90 VRB 7 11 30.12 1020 4 6 0.06 1.52
9:53 pm 21:53 Cloudy 65 18.3 60 15.6 84 84 E 5 7 30.09 1019 10 16 0.00 0.00
10:53 pm 22:53 Cloudy with Light Rain 65 18.3 61 16.1 87 87 E 3 6 30.11 1020 8 13 0.02 0.51
11:31 pm 23:31 Cloudy 64 17.8 62 16.7 93 93 ENE 5 7 30.11 1020 8 13 0.01 0.25
11:44 pm 23:44 Cloudy 65 18.3 62 16.7 90 90 VRB 6 9 30.10 1019 9 14 0.01 0.25
11:53 pm 23:53 Cloudy 65 18.3 62 16.7 90 90 VRB 3 6 30.09 1019 9 14 0.01 0.25

Powered by AerisWeather